Time,TemperatureF,DewpointF,PressureIn,WindDirection,WindDirectionDegrees,WindSpeedMPH,WindSpeedGustMPH,Humidity,HourlyPrecipIn,Conditions,Clouds,dailyrainin,SoftwareType,DateUTC
2015-05-30 00:03:00,77.4,70.0,30.03,ENE,68,2.2,4.0,78,0.00,,,0.00,WUHU216HW,2015-05-30 04:03:00,
2015-05-30 00:08:00,77.2,69.4,30.03,ESE,113,2.5,3.1,77,0.00,,,0.00,WUHU216HW,2015-05-30 04:08:00,
2015-05-30 00:13:00,77.4,69.6,30.02,ENE,68,2.0,3.1,77,0.00,,,0.00,WUHU216HW,2015-05-30 04:13:00,
2015-05-30 00:18:00,77.2,69.9,30.02,ENE,68,1.8,2.7,78,0.00,,,0.00,WUHU216HW,2015-05-30 04:18:00,
2015-05-30 00:23:00,77.2,69.9,30.02,ESE,113,1.8,2.7,78,0.00,,,0.00,WUHU216HW,2015-05-30 04:23:00,
2015-05-30 00:28:00,77.0,69.7,30.03,East,90,1.6,2.2,78,0.00,,,0.00,WUHU216HW,2015-05-30 04:28:00,
2015-05-30 00:33:00,76.9,69.5,30.03,ENE,68,1.3,2.2,78,0.00,,,0.00,WUHU216HW,2015-05-30 04:33:00,
2015-05-30 00:38:00,76.9,69.5,30.03,East,90,1.1,2.2,78,0.00,,,0.00,WUHU216HW,2015-05-30 04:38:00,
2015-05-30 00:43:00,76.7,69.3,30.03,East,90,1.1,1.8,78,0.00,,,0.00,WUHU216HW,2015-05-30 04:43:00,
2015-05-30 00:48:00,76.7,69.3,30.03,East,90,1.1,1.8,78,0.00,,,0.00,WUHU216HW,2015-05-30 04:48:00,
2015-05-30 00:53:00,76.7,69.3,30.02,ENE,68,0.9,1.8,78,0.00,,,0.00,WUHU216HW,2015-05-30 04:53:00,
2015-05-30 00:58:00,76.7,69.3,30.02,ESE,113,2.5,2.5,78,0.00,,,0.00,WUHU216HW,2015-05-30 04:58:00,
2015-05-30 01:03:00,76.7,69.3,30.02,ENE,68,1.8,3.4,78,0.00,,,0.00,WUHU216HW,2015-05-30 05:03:00,
2015-05-30 01:08:00,76.7,69.7,30.02,East,90,1.3,3.6,79,0.00,,,0.00,WUHU216HW,2015-05-30 05:08:00,
2015-05-30 01:13:00,76.9,69.9,30.02,ENE,68,1.6,3.6,79,0.00,,,0.00,WUHU216HW,2015-05-30 05:13:00,
2015-05-30 01:18:00,76.7,69.7,30.02,East,90,1.8,2.7,79,0.00,,,0.00,WUHU216HW,2015-05-30 05:18:00,
2015-05-30 01:23:00,76.9,69.9,30.01,ENE,68,1.8,3.4,79,0.00,,,0.00,WUHU216HW,2015-05-30 05:23:00,
2015-05-30 01:28:00,76.9,69.5,30.01,East,90,1.1,3.4,78,0.00,,,0.00,WUHU216HW,2015-05-30 05:28:00,
2015-05-30 01:33:00,76.7,69.3,30.01,East,90,1.1,1.8,78,0.00,,,0.00,WUHU216HW,2015-05-30 05:33:00,
2015-05-30 01:38:00,76.7,69.3,30.01,East,90,1.3,1.8,78,0.00,,,0.00,WUHU216HW,2015-05-30 05:38:00,
2015-05-30 01:43:00,76.7,70.0,30.01,ENE,68,1.3,2.2,80,0.00,,,0.00,WUHU216HW,2015-05-30 05:43:00,
2015-05-30 01:48:00,76.7,69.7,30.01,NE,45,1.8,2.9,79,0.00,,,0.00,WUHU216HW,2015-05-30 05:48:00,
2015-05-30 01:53:00,76.7,69.7,30.01,ENE,68,1.1,2.9,79,0.00,,,0.00,WUHU216HW,2015-05-30 05:53:00,
2015-05-30 01:58:00,76.7,69.3,30.01,East,90,0.9,2.2,78,0.00,,,0.00,WUHU216HW,2015-05-30 05:58:00,
2015-05-30 02:03:00,76.5,69.5,30.01,ENE,68,1.1,1.8,79,0.00,,,0.00,WUHU216HW,2015-05-30 06:03:00,
2015-05-30 02:08:00,76.5,69.9,30.01,NE,45,1.1,1.8,80,0.00,,,0.00,WUHU216HW,2015-05-30 06:08:00,
2015-05-30 02:13:00,76.5,69.5,30.00,NE,45,0.0,1.8,79,0.00,,,0.00,WUHU216HW,2015-05-30 06:13:00,
2015-05-30 02:18:00,76.3,69.4,30.00,NE,45,0.0,1.8,79,0.00,,,0.00,WUHU216HW,2015-05-30 06:18:00,
2015-05-30 02:23:00,76.1,69.2,30.00,ENE,68,0.2,1.1,79,0.00,,,0.00,WUHU216HW,2015-05-30 06:23:00,
2015-05-30 02:28:00,76.1,69.2,30.00,ESE,113,0.4,0.9,79,0.00,,,0.00,WUHU216HW,2015-05-30 06:28:00,
2015-05-30 02:33:00,76.0,69.0,30.00,ESE,113,0.0,0.9,79,0.00,,,0.00,WUHU216HW,2015-05-30 06:33:00,
2015-05-30 02:38:00,75.6,68.7,29.99,ESE,113,0.0,0.4,79,0.00,,,0.00,WUHU216HW,2015-05-30 06:38:00,
2015-05-30 02:43:00,75.4,68.5,30.00,ESE,113,0.0,0.0,79,0.00,,,0.00,WUHU216HW,2015-05-30 06:43:00,
2015-05-30 02:48:00,75.1,68.6,29.99,ESE,113,0.0,0.0,80,0.00,,,0.00,WUHU216HW,2015-05-30 06:48:00,
2015-05-30 02:53:00,74.9,68.4,29.99,ESE,113,0.0,0.0,80,0.00,,,0.00,WUHU216HW,2015-05-30 06:53:00,
2015-05-30 02:58:00,74.7,68.2,29.99,ESE,113,0.0,0.0,80,0.00,,,0.00,WUHU216HW,2015-05-30 06:58:00,
2015-05-30 03:03:00,74.5,68.4,29.99,ESE,113,0.0,0.0,81,0.00,,,0.00,WUHU216HW,2015-05-30 07:03:00,
2015-05-30 03:08:00,74.3,68.2,29.99,ESE,113,0.0,0.0,81,0.00,,,0.00,WUHU216HW,2015-05-30 07:08:00,
2015-05-30 03:13:00,74.2,68.1,29.99,ESE,113,0.0,0.0,81,0.00,,,0.00,WUHU216HW,2015-05-30 07:13:00,
2015-05-30 03:18:00,74.0,67.9,29.99,ESE,113,0.0,0.0,81,0.00,,,0.00,WUHU216HW,2015-05-30 07:18:00,
2015-05-30 03:23:00,74.0,67.9,29.99,ESE,113,0.0,0.0,81,0.00,,,0.00,WUHU216HW,2015-05-30 07:23:00,
2015-05-30 03:28:00,73.8,67.7,29.99,ESE,113,0.0,0.0,81,0.00,,,0.00,WUHU216HW,2015-05-30 07:28:00,
2015-05-30 03:33:00,73.8,67.7,29.99,ESE,113,0.0,0.0,81,0.00,,,0.00,WUHU216HW,2015-05-30 07:33:00,
2015-05-30 03:38:00,73.4,67.7,29.99,ESE,113,0.0,0.0,82,0.00,,,0.00,WUHU216HW,2015-05-30 07:38:00,
2015-05-30 03:43:00,73.3,67.5,29.98,ESE,113,0.0,0.0,82,0.00,,,0.00,WUHU216HW,2015-05-30 07:43:00,
2015-05-30 03:48:00,73.1,67.3,29.98,ESE,113,0.0,0.0,82,0.00,,,0.00,WUHU216HW,2015-05-30 07:48:00,
2015-05-30 03:53:00,72.9,67.4,29.99,ESE,113,0.0,0.0,83,0.00,,,0.00,WUHU216HW,2015-05-30 07:53:00,
2015-05-30 03:58:00,72.9,67.4,29.99,ESE,113,0.0,0.0,83,0.00,,,0.00,WUHU216HW,2015-05-30 07:58:00,
2015-05-30 04:03:00,72.7,67.2,29.99,ESE,113,0.0,0.0,83,0.00,,,0.00,WUHU216HW,2015-05-30 08:03:00,
2015-05-30 04:08:00,72.7,67.2,29.99,ESE,113,0.0,0.0,83,0.00,,,0.00,WUHU216HW,2015-05-30 08:08:00,
2015-05-30 04:13:00,72.7,67.0,29.99,ESE,113,0.0,0.0,82,0.00,,,0.00,WUHU216HW,2015-05-30 08:13:00,
2015-05-30 04:18:00,72.7,67.0,29.98,ESE,113,0.0,0.0,82,0.00,,,0.00,WUHU216HW,2015-05-30 08:18:00,
2015-05-30 04:23:00,72.5,66.8,29.98,ESE,113,0.0,0.0,82,0.00,,,0.00,WUHU216HW,2015-05-30 08:23:00,
2015-05-30 04:28:00,72.4,66.9,29.99,ESE,113,0.0,0.0,83,0.00,,,0.00,WUHU216HW,2015-05-30 08:28:00,
2015-05-30 04:33:00,72.2,66.7,29.99,ESE,113,0.0,0.0,83,0.00,,,0.00,WUHU216HW,2015-05-30 08:33:00,
2015-05-30 04:43:00,71.8,66.7,29.99,ESE,113,0.0,0.0,84,0.00,,,0.00,WUHU216HW,2015-05-30 08:43:00,
2015-05-30 04:48:00,71.6,66.5,29.98,ESE,113,0.0,0.0,84,0.00,,,0.00,WUHU216HW,2015-05-30 08:48:00,
2015-05-30 04:53:00,71.6,66.5,29.98,ESE,113,0.0,0.0,84,0.00,,,0.00,WUHU216HW,2015-05-30 08:53:00,
2015-05-30 04:58:00,71.6,66.5,29.99,ESE,113,0.0,0.0,84,0.00,,,0.00,WUHU216HW,2015-05-30 08:58:00,
2015-05-30 05:03:00,71.6,66.9,29.98,ESE,113,0.0,0.0,85,0.00,,,0.00,WUHU216HW,2015-05-30 09:03:00,
2015-05-30 05:08:00,71.6,66.9,29.99,North,0,0.0,0.0,85,0.00,,,0.00,WUHU216HW,2015-05-30 09:08:00,
2015-05-30 05:13:00,71.6,66.9,29.99,North,0,0.0,0.0,85,0.00,,,0.00,WUHU216HW,2015-05-30 09:13:00,
2015-05-30 05:18:00,71.8,67.1,29.99,North,0,0.0,0.0,85,0.00,,,0.00,WUHU216HW,2015-05-30 09:18:00,
2015-05-30 05:23:00,71.6,66.9,29.99,North,0,0.0,0.0,85,0.00,,,0.00,WUHU216HW,2015-05-30 09:23:00,
2015-05-30 05:28:00,71.8,67.1,29.99,North,0,0.0,0.0,85,0.00,,,0.00,WUHU216HW,2015-05-30 09:28:00,
2015-05-30 05:33:00,71.6,66.9,29.99,North,0,0.0,0.0,85,0.00,,,0.00,WUHU216HW,2015-05-30 09:33:00,
2015-05-30 05:38:00,71.6,66.9,29.99,North,0,0.0,0.0,85,0.00,,,0.00,WUHU216HW,2015-05-30 09:38:00,
2015-05-30 05:43:00,71.6,66.9,29.99,North,0,0.0,0.0,85,0.00,,,0.00,WUHU216HW,2015-05-30 09:43:00,
2015-05-30 05:48:00,71.6,66.9,29.99,North,0,0.0,0.0,85,0.00,,,0.00,WUHU216HW,2015-05-30 09:48:00,
2015-05-30 05:53:00,71.6,67.2,29.99,North,0,0.0,0.0,86,0.00,,,0.00,WUHU216HW,2015-05-30 09:53:00,
2015-05-30 05:58:00,71.6,67.2,29.99,North,0,0.0,0.0,86,0.00,,,0.00,WUHU216HW,2015-05-30 09:58:00,
2015-05-30 06:03:00,71.6,67.2,29.99,North,0,0.0,0.0,86,0.00,,,0.00,WUHU216HW,2015-05-30 10:03:00,
2015-05-30 06:08:00,71.5,67.1,29.99,North,0,0.0,0.0,86,0.00,,,0.00,WUHU216HW,2015-05-30 10:08:00,
2015-05-30 06:13:00,71.5,67.1,29.99,North,0,0.0,0.0,86,0.00,,,0.00,WUHU216HW,2015-05-30 10:13:00,
2015-05-30 06:18:00,71.5,67.1,29.99,North,0,0.0,0.0,86,0.00,,,0.00,WUHU216HW,2015-05-30 10:18:00,
2015-05-30 06:23:00,71.6,67.2,29.99,North,0,0.0,0.0,86,0.00,,,0.00,WUHU216HW,2015-05-30 10:23:00,
2015-05-30 06:28:00,71.6,67.2,29.99,North,0,0.0,0.0,86,0.00,,,0.00,WUHU216HW,2015-05-30 10:28:00,
2015-05-30 06:33:00,71.5,67.1,30.00,North,0,0.0,0.0,86,0.00,,,0.00,WUHU216HW,2015-05-30 10:33:00,
2015-05-30 06:38:00,71.3,66.9,30.00,North,0,0.0,0.0,86,0.00,,,0.00,WUHU216HW,2015-05-30 10:38:00,
2015-05-30 06:43:00,71.3,67.2,30.00,North,0,0.0,0.0,87,0.00,,,0.00,WUHU216HW,2015-05-30 10:43:00,
2015-05-30 06:48:00,71.5,67.4,30.00,North,0,0.0,0.0,87,0.00,,,0.00,WUHU216HW,2015-05-30 10:48:00,
2015-05-30 06:53:00,71.6,67.6,30.00,North,0,0.0,0.0,87,0.00,,,0.00,WUHU216HW,2015-05-30 10:53:00,
2015-05-30 06:58:00,71.8,67.8,30.00,North,0,0.0,0.0,87,0.00,,,0.00,WUHU216HW,2015-05-30 10:58:00,
2015-05-30 07:03:00,72.2,68.1,30.00,North,0,0.0,0.0,87,0.00,,,0.00,WUHU216HW,2015-05-30 11:03:00,
2015-05-30 07:08:00,72.7,68.7,30.00,North,0,0.0,0.0,87,0.00,,,0.00,WUHU216HW,2015-05-30 11:08:00,
2015-05-30 07:13:00,73.1,69.3,30.01,North,0,0.0,0.0,88,0.00,,,0.00,WUHU216HW,2015-05-30 11:13:00,
2015-05-30 07:18:00,73.6,69.8,30.00,North,0,0.0,0.0,88,0.00,,,0.00,WUHU216HW,2015-05-30 11:18:00,
2015-05-30 07:23:00,74.2,70.1,30.00,North,0,0.0,0.0,87,0.00,,,0.00,WUHU216HW,2015-05-30 11:23:00,
2015-05-30 07:28:00,74.7,70.7,30.01,North,0,0.0,0.0,87,0.00,,,0.00,WUHU216HW,2015-05-30 11:28:00,
2015-05-30 07:33:00,75.2,71.2,30.01,North,0,0.0,0.2,87,0.00,,,0.00,WUHU216HW,2015-05-30 11:33:00,
2015-05-30 07:38:00,75.6,71.2,30.01,North,0,0.0,0.2,86,0.00,,,0.00,WUHU216HW,2015-05-30 11:38:00,
2015-05-30 07:43:00,76.0,71.5,30.01,North,0,0.0,0.0,86,0.00,,,0.00,WUHU216HW,2015-05-30 11:43:00,
2015-05-30 07:48:00,76.5,71.6,30.01,NNE,23,0.0,0.2,85,0.00,,,0.00,WUHU216HW,2015-05-30 11:48:00,
2015-05-30 07:53:00,76.9,71.6,30.01,NE,45,1.1,1.6,84,0.00,,,0.00,WUHU216HW,2015-05-30 11:53:00,
2015-05-30 07:58:00,77.6,72.4,30.02,NE,45,0.4,1.6,84,0.00,,,0.00,WUHU216HW,2015-05-30 11:58:00,
2015-05-30 08:03:00,78.1,71.8,30.02,ENE,68,2.2,2.2,81,0.00,,,0.00,WUHU216HW,2015-05-30 12:03:00,
2015-05-30 08:08:00,79.0,71.2,30.02,ENE,68,2.7,3.4,77,0.00,,,0.00,WUHU216HW,2015-05-30 12:08:00,
2015-05-30 08:13:00,79.6,71.3,30.02,East,90,1.3,3.4,76,0.00,,,0.00,WUHU216HW,2015-05-30 12:13:00,
2015-05-30 08:18:00,79.4,71.1,30.02,East,90,1.1,2.9,76,0.00,,,0.00,WUHU216HW,2015-05-30 12:18:00,
2015-05-30 08:23:00,79.2,70.6,30.02,ESE,113,2.5,3.1,75,0.00,,,0.00,WUHU216HW,2015-05-30 12:23:00,
2015-05-30 08:28:00,79.4,70.7,30.02,ESE,113,1.3,3.1,75,0.00,,,0.00,WUHU216HW,2015-05-30 12:28:00,
2015-05-30 08:33:00,79.2,70.6,30.02,ENE,68,1.3,3.1,75,0.00,,,0.00,WUHU216HW,2015-05-30 12:33:00,
2015-05-30 08:38:00,79.0,70.7,30.03,ENE,68,0.4,1.6,76,0.00,,,0.00,WUHU216HW,2015-05-30 12:38:00,
2015-05-30 08:43:00,78.8,70.6,30.03,ENE,68,1.1,1.3,76,0.00,,,0.00,WUHU216HW,2015-05-30 12:43:00,
2015-05-30 08:48:00,78.8,70.6,30.03,NE,45,2.0,2.0,76,0.00,,,0.00,WUHU216HW,2015-05-30 12:48:00,
2015-05-30 08:53:00,79.0,71.6,30.02,NE,45,4.9,4.9,78,0.00,,,0.00,WUHU216HW,2015-05-30 12:53:00,
2015-05-30 08:58:00,79.0,71.6,30.03,NNE,23,2.2,4.9,78,0.00,,,0.00,WUHU216HW,2015-05-30 12:58:00,
2015-05-30 09:03:00,79.2,71.7,30.03,North,0,2.2,4.9,78,0.00,,,0.00,WUHU216HW,2015-05-30 13:03:00,
2015-05-30 09:08:00,79.6,72.1,30.02,NNE,23,0.0,3.4,78,0.00,,,0.00,WUHU216HW,2015-05-30 13:08:00,
2015-05-30 09:13:00,80.1,72.6,30.03,NNW,338,0.9,2.2,78,0.00,,,0.00,WUHU216HW,2015-05-30 13:13:00,
2015-05-30 09:18:00,80.6,72.4,30.02,ENE,68,1.8,1.8,76,0.00,,,0.00,WUHU216HW,2015-05-30 13:18:00,
2015-05-30 09:23:00,81.4,71.5,30.03,ESE,113,1.8,4.7,72,0.00,,,0.00,WUHU216HW,2015-05-30 13:23:00,
2015-05-30 09:28:00,81.7,71.0,30.03,East,90,4.0,8.1,70,0.00,,,0.00,WUHU216HW,2015-05-30 13:28:00,
2015-05-30 09:33:00,81.4,70.7,30.03,ESE,113,4.0,8.1,70,0.00,,,0.00,WUHU216HW,2015-05-30 13:33:00,
2015-05-30 09:38:00,81.4,71.1,30.03,East,90,3.8,5.4,71,0.00,,,0.00,WUHU216HW,2015-05-30 13:38:00,
2015-05-30 09:43:00,81.9,72.0,30.03,ENE,68,3.8,5.8,72,0.00,,,0.00,WUHU216HW,2015-05-30 13:43:00,
2015-05-30 09:48:00,82.1,71.3,30.03,NE,45,3.8,7.6,70,0.00,,,0.00,WUHU216HW,2015-05-30 13:48:00,
2015-05-30 09:53:00,82.1,72.5,30.03,ENE,68,4.0,8.9,73,0.00,,,0.00,WUHU216HW,2015-05-30 13:53:00,
2015-05-30 09:58:00,82.4,72.1,30.03,ENE,68,3.4,8.9,71,0.00,,,0.00,WUHU216HW,2015-05-30 13:58:00,
2015-05-30 10:03:00,82.6,73.1,30.03,East,90,4.5,7.2,73,0.00,,,0.00,WUHU216HW,2015-05-30 14:03:00,
2015-05-30 10:08:00,81.9,72.4,30.03,East,90,5.1,6.7,73,0.00,,,0.00,WUHU216HW,2015-05-30 14:08:00,
2015-05-30 10:13:00,81.5,71.3,30.03,NE,45,3.8,8.5,71,0.00,,,0.00,WUHU216HW,2015-05-30 14:13:00,
2015-05-30 10:18:00,81.2,71.7,30.04,ENE,68,6.3,8.5,73,0.00,,,0.00,WUHU216HW,2015-05-30 14:18:00,
2015-05-30 10:23:00,80.6,72.4,30.04,ESE,113,2.5,7.6,76,0.00,,,0.00,WUHU216HW,2015-05-30 14:23:00,
2015-05-30 10:28:00,81.4,72.7,30.04,ENE,68,3.6,7.6,75,0.00,,,0.00,WUHU216HW,2015-05-30 14:28:00,
2015-05-30 10:33:00,82.3,72.3,30.04,ENE,68,2.2,4.0,72,0.00,,,0.00,WUHU216HW,2015-05-30 14:33:00,
2015-05-30 10:38:00,82.1,72.5,30.04,ENE,68,5.4,6.5,73,0.00,,,0.00,WUHU216HW,2015-05-30 14:38:00,
2015-05-30 10:43:00,81.4,71.9,30.04,NE,45,3.8,6.5,73,0.00,,,0.00,WUHU216HW,2015-05-30 14:43:00,
2015-05-30 10:48:00,81.7,72.2,30.04,ENE,68,4.3,5.4,73,0.00,,,0.00,WUHU216HW,2015-05-30 14:48:00,
2015-05-30 10:53:00,82.4,72.5,30.03,SE,135,3.8,7.6,72,0.00,,,0.00,WUHU216HW,2015-05-30 14:53:00,
2015-05-30 10:58:00,83.2,72.8,30.04,ENE,68,4.5,7.6,71,0.00,,,0.00,WUHU216HW,2015-05-30 14:58:00,
2015-05-30 11:03:00,83.3,72.5,30.04,ESE,113,3.1,7.2,70,0.00,,,0.00,WUHU216HW,2015-05-30 15:03:00,
2015-05-30 11:08:00,84.1,72.4,30.04,ESE,113,3.6,7.2,68,0.00,,,0.00,WUHU216HW,2015-05-30 15:08:00,
2015-05-30 11:13:00,84.4,71.8,30.04,ESE,113,4.7,7.2,66,0.00,,,0.00,WUHU216HW,2015-05-30 15:13:00,
2015-05-30 11:18:00,83.9,73.1,30.04,SE,135,1.8,7.2,70,0.00,,,0.00,WUHU216HW,2015-05-30 15:18:00,
2015-05-30 11:23:00,84.2,73.4,30.04,ENE,68,5.8,6.7,70,0.00,,,0.00,WUHU216HW,2015-05-30 15:23:00,
2015-05-30 11:28:00,84.1,72.4,30.04,SE,135,6.0,7.2,68,0.00,,,0.00,WUHU216HW,2015-05-30 15:28:00,
2015-05-30 11:33:00,83.7,72.9,30.04,ESE,113,3.4,8.3,70,0.00,,,0.00,WUHU216HW,2015-05-30 15:33:00,
2015-05-30 11:38:00,82.8,73.3,30.04,East,90,5.8,8.3,73,0.00,,,0.00,WUHU216HW,2015-05-30 15:38:00,
2015-05-30 11:43:00,82.8,73.6,30.04,SE,135,1.6,8.1,74,0.00,,,0.00,WUHU216HW,2015-05-30 15:43:00,
2015-05-30 11:48:00,83.0,73.5,30.04,ESE,113,3.1,5.8,73,0.00,,,0.00,WUHU216HW,2015-05-30 15:48:00,
2015-05-30 11:53:00,82.8,73.6,30.03,East,90,4.0,5.4,74,0.00,,,0.00,WUHU216HW,2015-05-30 15:53:00,
2015-05-30 12:04:00,82.3,73.2,30.03,East,90,5.6,9.2,74,0.00,,,0.00,WUHU216HW,2015-05-30 16:04:00,
2015-05-30 12:09:00,81.7,73.5,30.04,NE,45,3.6,9.2,76,0.00,,,0.00,WUHU216HW,2015-05-30 16:09:00,
2015-05-30 12:14:00,81.5,73.3,30.03,ENE,68,5.6,6.9,76,0.00,,,0.00,WUHU216HW,2015-05-30 16:14:00,
2015-05-30 12:19:00,81.9,73.6,30.04,ESE,113,4.0,6.7,76,0.00,,,0.00,WUHU216HW,2015-05-30 16:19:00,
2015-05-30 12:24:00,82.3,73.2,30.04,ESE,113,5.4,11.2,74,0.00,,,0.00,WUHU216HW,2015-05-30 16:24:00,
2015-05-30 12:29:00,82.3,72.7,30.03,East,90,4.7,11.2,73,0.00,,,0.00,WUHU216HW,2015-05-30 16:29:00,
2015-05-30 12:34:00,81.9,71.6,30.03,ESE,113,5.4,10.3,71,0.00,,,0.00,WUHU216HW,2015-05-30 16:34:00,
2015-05-30 12:39:00,82.3,72.7,30.03,ENE,68,5.4,10.3,73,0.00,,,0.00,WUHU216HW,2015-05-30 16:39:00,
2015-05-30 12:44:00,82.8,72.8,30.03,NE,45,3.1,9.6,72,0.00,,,0.00,WUHU216HW,2015-05-30 16:44:00,
2015-05-30 12:49:00,83.7,72.9,30.03,ENE,68,4.9,8.3,70,0.00,,,0.00,WUHU216HW,2015-05-30 16:49:00,
2015-05-30 12:54:00,84.6,71.6,30.03,ESE,113,4.9,6.3,65,0.00,,,0.00,WUHU216HW,2015-05-30 16:54:00,
2015-05-30 12:59:00,84.1,71.5,30.03,ESE,113,3.4,8.1,66,0.00,,,0.00,WUHU216HW,2015-05-30 16:59:00,
2015-05-30 13:04:00,85.0,71.5,30.03,East,90,6.3,8.7,64,0.00,,,0.00,WUHU216HW,2015-05-30 17:04:00,
2015-05-30 13:09:00,84.6,71.6,30.03,ENE,68,3.4,8.7,65,0.00,,,0.00,WUHU216HW,2015-05-30 17:09:00,
2015-05-30 13:14:00,84.8,71.7,30.03,ENE,68,5.8,8.5,65,0.00,,,0.00,WUHU216HW,2015-05-30 17:14:00,
2015-05-30 13:19:00,85.0,71.9,30.02,ENE,68,3.1,8.5,65,0.00,,,0.00,WUHU216HW,2015-05-30 17:19:00,
2015-05-30 13:24:00,85.1,70.2,30.02,ESE,113,5.8,8.3,61,0.00,,,0.00,WUHU216HW,2015-05-30 17:24:00,
2015-05-30 13:29:00,85.1,71.6,30.02,East,90,5.4,8.3,64,0.00,,,0.00,WUHU216HW,2015-05-30 17:29:00,
2015-05-30 13:34:00,84.6,71.6,30.02,ENE,68,9.2,9.2,65,0.00,,,0.00,WUHU216HW,2015-05-30 17:34:00,
2015-05-30 13:39:00,83.9,71.7,30.02,ENE,68,5.4,9.2,67,0.00,,,0.00,WUHU216HW,2015-05-30 17:39:00,
2015-05-30 13:44:00,84.4,72.3,30.02,NE,45,6.9,8.9,67,0.00,,,0.00,WUHU216HW,2015-05-30 17:44:00,
2015-05-30 13:49:00,84.1,72.4,30.02,ENE,68,6.9,11.4,68,0.00,,,0.00,WUHU216HW,2015-05-30 17:49:00,
2015-05-30 13:54:00,84.1,71.9,30.02,ENE,68,2.5,11.4,67,0.00,,,0.00,WUHU216HW,2015-05-30 17:54:00,
2015-05-30 13:59:00,83.9,71.7,30.02,ESE,113,6.5,10.1,67,0.00,,,0.00,WUHU216HW,2015-05-30 17:59:00,
2015-05-30 14:04:00,84.1,71.5,30.02,East,90,5.4,10.5,66,0.00,,,0.00,WUHU216HW,2015-05-30 18:04:00,
2015-05-30 14:09:00,84.2,73.4,30.01,East,90,4.0,10.5,70,0.00,,,0.00,WUHU216HW,2015-05-30 18:09:00,
2015-05-30 14:14:00,84.6,72.0,30.01,East,90,8.7,8.7,66,0.00,,,0.00,WUHU216HW,2015-05-30 18:14:00,
2015-05-30 14:19:00,83.9,71.7,30.01,NE,45,5.8,9.2,67,0.00,,,0.00,WUHU216HW,2015-05-30 18:19:00,
2015-05-30 14:24:00,84.2,71.6,30.01,ENE,68,6.3,9.2,66,0.00,,,0.00,WUHU216HW,2015-05-30 18:24:00,
2015-05-30 14:29:00,85.0,73.7,30.01,SSE,158,3.6,8.9,69,0.00,,,0.00,WUHU216HW,2015-05-30 18:29:00,
2015-05-30 14:34:00,84.4,72.3,30.01,East,90,4.3,9.2,67,0.00,,,0.00,WUHU216HW,2015-05-30 18:34:00,
2015-05-30 14:39:00,83.9,71.7,30.01,ESE,113,2.7,11.4,67,0.00,,,0.00,WUHU216HW,2015-05-30 18:39:00,
2015-05-30 14:44:00,83.7,72.5,30.01,East,90,4.7,11.4,69,0.00,,,0.00,WUHU216HW,2015-05-30 18:44:00,
2015-05-30 14:49:00,84.1,72.8,30.01,East,90,4.0,8.5,69,0.00,,,0.00,WUHU216HW,2015-05-30 18:49:00,
2015-05-30 14:54:00,84.1,72.8,30.01,ENE,68,3.8,7.8,69,0.00,,,0.00,WUHU216HW,2015-05-30 18:54:00,
2015-05-30 14:59:00,83.7,72.9,30.00,ENE,68,4.7,9.2,70,0.00,,,0.00,WUHU216HW,2015-05-30 18:59:00,
2015-05-30 15:04:00,83.3,72.5,30.00,NE,45,7.6,9.8,70,0.00,,,0.00,WUHU216HW,2015-05-30 19:04:00,
2015-05-30 15:09:00,83.0,73.5,30.00,East,90,7.6,10.5,73,0.00,,,0.00,WUHU216HW,2015-05-30 19:09:00,
2015-05-30 15:14:00,83.5,73.5,30.00,SE,135,6.5,10.5,72,0.00,,,0.00,WUHU216HW,2015-05-30 19:14:00,
2015-05-30 15:19:00,83.7,73.7,30.00,ESE,113,5.1,7.6,72,0.00,,,0.00,WUHU216HW,2015-05-30 19:19:00,
2015-05-30 15:24:00,83.5,72.7,30.00,ENE,68,10.5,10.5,70,0.00,,,0.00,WUHU216HW,2015-05-30 19:24:00,
2015-05-30 15:29:00,83.7,73.7,30.00,East,90,4.5,11.4,72,0.00,,,0.00,WUHU216HW,2015-05-30 19:29:00,
2015-05-30 15:34:00,84.1,72.8,30.00,ESE,113,5.6,11.4,69,0.00,,,0.00,WUHU216HW,2015-05-30 19:34:00,
2015-05-30 15:39:00,84.1,72.8,30.00,East,90,7.2,10.5,69,0.00,,,0.00,WUHU216HW,2015-05-30 19:39:00,
2015-05-30 15:44:00,83.7,72.5,30.00,ENE,68,7.6,9.8,69,0.00,,,0.00,WUHU216HW,2015-05-30 19:44:00,
2015-05-30 15:49:00,83.3,72.1,30.00,ENE,68,9.2,9.8,69,0.00,,,0.00,WUHU216HW,2015-05-30 19:49:00,
2015-05-30 15:54:00,83.7,72.9,29.99,ESE,113,3.8,9.2,70,0.00,,,0.00,WUHU216HW,2015-05-30 19:54:00,
2015-05-30 15:59:00,84.2,72.5,29.99,ESE,113,7.8,9.2,68,0.00,,,0.00,WUHU216HW,2015-05-30 19:59:00,
2015-05-30 16:04:00,83.9,72.2,29.99,ESE,113,5.4,7.8,68,0.00,,,0.00,WUHU216HW,2015-05-30 20:04:00,
2015-05-30 16:09:00,84.6,73.4,29.99,ENE,68,4.5,10.5,69,0.00,,,0.00,WUHU216HW,2015-05-30 20:09:00,
2015-05-30 16:14:00,83.5,73.1,29.99,ENE,68,7.6,10.5,71,0.00,,,0.00,WUHU216HW,2015-05-30 20:14:00,
2015-05-30 16:19:00,83.3,72.5,29.99,ENE,68,7.6,10.1,70,0.00,,,0.00,WUHU216HW,2015-05-30 20:19:00,
2015-05-30 16:24:00,84.1,72.4,29.99,SE,135,8.1,8.3,68,0.00,,,0.00,WUHU216HW,2015-05-30 20:24:00,
2015-05-30 16:29:00,84.4,72.7,29.99,SE,135,4.5,12.1,68,0.00,,,0.00,WUHU216HW,2015-05-30 20:29:00,
2015-05-30 16:34:00,84.1,73.6,29.99,ESE,113,4.7,12.1,71,0.00,,,0.00,WUHU216HW,2015-05-30 20:34:00,
2015-05-30 16:39:00,83.7,73.7,29.99,ESE,113,8.5,8.7,72,0.00,,,0.00,WUHU216HW,2015-05-30 20:39:00,
2015-05-30 16:44:00,82.8,72.0,29.98,ESE,113,8.3,10.5,70,0.00,,,0.00,WUHU216HW,2015-05-30 20:44:00,